User: anonymous   Login
Location: Bruderhein
(53.8035°N, 112.9265°W)
Time: 14:58:57
(UTC+00:00)
Language:

ITAMSAT 1 - Orbit

View from above orbital plane
View from above orbital plane
View from above satellite
View from above satellite

Ground track
Ground track

The orbit data is extracted from the following two-line orbital elements,

1 22826U 93061D   23079.11047082  .00000237  00000-0  10839-3 0  9999
2 22826  98.8483 120.3805 0008176 319.2584  40.7985 14.30623631538070
Epoch (UTC): 20 March 2023 02:39:04
Eccentricity: 0.0008176
inclination: 98.8483°
perigee height: 784 km
apogee height: 795 km
right ascension of ascending node: 120.3805°
argument of perigee: 319.2584°
revolutions per day: 14.30623631
mean anomaly at epoch: 40.7985°
orbit number at epoch: 53807

The dashed part of the orbit path shows where the satellite is in the earth's shadow,  

DLR